Montana Department of Transportation

Main Content

Accidents and Incidents Report

Hourly Weather Roundup

ASUS45 KTFX 032310
RWRMT 
MONTANA REGIONAL WEATHER ROUNDUP
NATIONAL WEATHER SERVICE GREAT FALLS MT
500 PM MDT FRI JUL 03 2015

NOTE: "FAIR" INDICATES FEW OR NO CLOUDS BELOW 12000 FEET WITH NO
SIGNIFICANT WEATHER AND/OR OBSTRUCTIONS TO VISIBILITY.

MTZ001.007-043-040000-
WEST OF THE DIVIDE
  
CITY           SKY/WX    TMP DP  RH WIND       PRES   REMARKS
KALISPELL      CLEAR     95  42  16 S9        29.83F HX  91           
MISSOULA       SUNNY     95  36  12 NW10G22   29.86F HX  90           
BUTTE          MOSUNNY   89  35  14 N10       30.04F                  
MULLAN PASS    SUNNY     80  41  24 MISG      30.12F                  
DEER LODGE       N/A     90  39  17 NW9       29.99F                  
EUREKA           N/A     95  37  13 W12       29.81F HX  90           
HAMILTON         N/A     93  39  15 NE7       29.89F                  
PLAINS           N/A     96  49  20 W8        29.84F HX  92           
RONAN            N/A     93  51  23 SE3       29.92F HX  90           
THOMPSON FALLS   N/A     98  43  15 SW8       29.86F HX  94           
--------------------------------

MTZ008-052.055-040000-
SOUTHWEST MONTANA
  
CITY           SKY/WX    TMP DP  RH WIND       PRES   REMARKS
BOZEMAN        MOSUNNY   90  39  16 W12G18    29.94F                  
DILLON         SUNNY     90  34  13 VRB3      29.98F                  
W YELLOWSTONE  MOSUNNY   84  32  15 NW13G22   30.10F                  
THREE FORKS      N/A     93  39  15 S6        29.93F                  
--------------------------------

MTZ009-010-012-014-046-048-049-054-040000-
EAST SLOPES AND CENTRAL MONTANA
  
CITY           SKY/WX    TMP DP  RH WIND       PRES   REMARKS
CUT BANK       MOSUNNY   92  37  14 NW10      29.87F                  
GREAT FALLS    MOSUNNY   94  41  16 CALM      29.86F HX  90           
MALMSTROM AFB  MOSUNNY   92  40  16 S3G13     29.86F                  
HELENA         MOSUNNY   96  35  11 W9G20     29.87F HX  91           
CONRAD           N/A     92  61  35 W2        29.90F HX  92           
--------------------------------

MTZ011-013-016-021-045-047-050-051-040000-
NORTH CENTRAL MONTANA
  
CITY           SKY/WX    TMP DP  RH WIND       PRES   REMARKS
HAVRE          PTSUNNY   95  44  17 MISG      29.80F HX  91           
LEWISTOWN      MOSUNNY   89  47  23 N7        29.93F                  
CHINOOK          N/A     93  48  21 SE9       29.80F HX  90           
FORT BENTON      N/A     91  45  19 E6        29.81F                  
--------------------------------

MTZ017.020-022.027-061-062-040000-
NORTHEAST MONTANA
  
CITY           SKY/WX    TMP DP  RH WIND       PRES   REMARKS
GLASGOW        SUNNY     88  48  25 E6        29.85F HAZE             
JORDAN           N/A     89  48  24 VRB3      29.86F                  
SIDNEY         SUNNY     88  57  35 S5        29.88F                  
WOLF POINT     SUNNY     88  59  37 E7        29.85F                  
PLENTYWOOD       N/A     82  63  51 S5        29.89F                  
POPLAR           N/A     88  61  40 CALM      29.86F                  
SCOBEY           N/A     81  57  43 S3        29.90F                  
--------------------------------

MTZ028.42-056.058-040000-
SOUTHCENTRAL AND SOUTHEAST MONTANA
  
CITY           SKY/WX    TMP DP  RH WIND       PRES   REMARKS
BAKER          SUNNY     84  57  39 S17       29.93F                  
BILLINGS       MOSUNNY   92  46  20 E7        29.91F                  
LIVINGSTON     MOSUNNY   89  48  24 VRB3      29.94F                  
MILES CITY     SUNNY     91  50  24 VRB3      29.86F                  
EKALAKA          N/A     85  53  33 S3        29.94F                  
FORSYTH          N/A     90  52  27 CALM      29.86F                  
LAUREL           N/A     91  48  22 N6        29.90F                  
ROUNDUP          N/A     92  48  22 SW3       29.82F                  
--------------------------------

REGIONAL REPORTS...DAKOTAS
  
CITY           SKY/WX    TMP DP  RH WIND       PRES   REMARKS
WILLISTON      SUNNY     86  54  33 MISG      29.89F                  
MINOT          CLOUDY    81  62  52 S7        29.90F HAZE             
DICKINSON      SUNNY     81  60  48 S8        29.92F                  
BEACH          FAIR      82  59  44 SE9       29.93F                  
CROSBY         FAIR      81  64  57 SE5       29.90F HAZE             
BISMARCK       MOSUNNY   81  63  54 VRB6      29.94S HAZE             
GRAND FORKS    MOSUNNY   80  61  52 NE8       29.90S HAZE             
FARGO          MOSUNNY   82  64  54 NE3       29.90S HAZE             
BUFFALO SD       N/A     84  55  36 SE12      29.89F                  
RAPID CITY     SUNNY     80  60  50 SE10      29.98F                  
--------------------------------

REGIONAL REPORTS...WYOMING/IDAHO/WASHINGTON
  
CITY           SKY/WX    TMP DP  RH WIND       PRES   REMARKS
GILLETTE       MOSUNNY   85  51  31 CALM      29.98F                  
SHERIDAN       MOSUNNY   88  50  27 E7        29.94F                  
BUFFALO WY     MOSUNNY   84  52  33 S5        30.01F                  
CODY           PTSUNNY   75  61  60 NW3       30.00R THUNDER          
YELLOWSTONE LA   N/A     78  31  17 W14G22    30.22F                  
IDAHO FALLS    SUNNY     95  45  17 S15       29.93F HX  91           
SALMON         MOSUNNY   93  39  15 W3        29.87F                  
BOISE          SUNNY    102  36  10 NW12      29.84F HX  96           
SPOKANE        MOSUNNY   99  40  13 W8G20     29.83F HX  94           
--------------------------------

REGIONAL REPORTS...ALBERTA
  
CITY           SKY/WX    TMP DP  RH WIND       PRES   REMARKS
EDMONTON       SUNNY     81  39  22 NW13G21   29.82F                  
CALGARY        MOSUNNY   84  50  30 SE9       29.86S                  
MEDICINE HAT   MOSUNNY   95  48  20 W15G21    29.76F HX  91           
WATERTON GATE    N/A     90  43  19 SW10G18     N/A                   
MILK RIVER       N/A     91  43  18 NW7         N/A                   
ONEFOUR          N/A     93  36  13 SW12        N/A                   
--------------------------------

REGIONAL REPORTS...SASKATCHEWAN
  
CITY           SKY/WX    TMP DP  RH WIND       PRES   REMARKS
SWIFT CURRENT  SUNNY     86  55  35 S12G18    29.82F                  
REGINA         PTSUNNY   82  61  47 S9        29.84F SMOKE            
SASKATOON      PTSUNNY   90  54  29 SW13G21   29.77F                  
CYPRESS HILLS    N/A     86  46  25 SW10        N/A                   
ROCKGLEN         N/A     82  55  39 S12         N/A                   
ASSINIBOIA       N/A     77  55  47 NW12        N/A                   
--------------------------------